2021-034B (48269 NORAD) Tracking and Keplerian Element Data

This shows tracking and keplerian element data for the satellite.

Feedback or suggestion? Click here.




ElementValue
Catalog48269
Name2021-034B
Epoch Orbit261
Epoch Day136.78999948
Epoch Year2021
RAAN212.0673
Inclination97.7857
Eccentricity0.0002302
Argument of Perigee321.8115
Mean Anonmoly38.294
Mean Motion14.85734447
Decay Rate8.01E-06
L11 48269U 21034B 21136.78999948 .00000801 00000-0 98364-4 0 9998
L22 48269 97.7857 212.0673 0002302 321.8115 38.2940 14.85734447 2615

Live tracking and technical data element details for 2021-034B (NORAD 48269). 2021-034B can be tracked NOW for your location showing map with azimuth and elevation plus other details from your city location.

Track the satellite on the map from your city or location and see movement details for azimuth, elevation, latitude, longitude, range, height, and movement on the map or in text.







IsCatalogInMostPopularTable: catalog: 48269, numindb: 8
Update: records affected: 1



GetName: 48269 2021-034B

Hit Count: updated at: Mon, 17 May 2021 16:05:40 GMT